Location: Albert
(44.3172°N, 77.1347°W)
Time: 06:33:44
(UTC+00:00)

Envisat - Visible Passes

Search period start: 21 October 2021 00:00
Search period end: 31 October 2021 00:00
Orbit: 764 x 766 km, 98.2° (Epoch: 20 October)

Date Brightness Start Highest point End Pass type
(mag) Time Alt. Az. Time Alt. Az. Time Alt. Az.
21 Oct 4.9 09:33:05 10° NNE 09:37:35 31° E 09:42:04 10° SSE visible
22 Oct 6.0 08:57:36 10° NE 09:00:22 15° E 09:03:08 10° ESE visible
22 Oct 2.9 10:34:50 10° N 10:39:55 72° WNW 10:44:58 10° SSW visible
23 Oct 3.8 09:58:03 10° NNE 10:03:03 53° E 10:08:00 10° S visible
23 Oct 6.4 22:56:31 10° WSW 22:58:41 13° W 23:00:53 10° WNW visible
24 Oct 5.3 09:21:49 10° NE 09:25:59 25° E 09:30:06 10° SSE visible
24 Oct 3.4 11:00:21 10° N 11:05:08 42° WNW 11:09:54 10° SW visible
25 Oct 6.2 08:47:10 10° ENE 08:48:41 11° E 08:50:13 10° ESE visible
25 Oct 3.0 10:23:17 10° NNE 10:28:24 90° WNW 10:33:29 10° SSW visible
26 Oct 4.3 09:46:38 10° NNE 09:51:29 42° E 09:56:16 10° S visible
26 Oct 6.1 22:43:54 10° SW 22:47:01 16° W 22:50:09 10° NW visible
27 Oct 5.6 09:10:39 10° NE 09:14:20 20° E 09:18:00 10° SE visible
27 Oct 3.1 10:48:43 10° N 10:53:40 53° WNW 10:58:35 10° SSW visible
28 Oct 3.2 10:11:46 10° NNE 10:16:52 73° ESE 10:21:56 10° S visible
29 Oct 4.7 09:35:17 10° NNE 09:39:53 33° E 09:44:27 10° SSE visible
29 Oct 6.0 22:31:38 10° SW 22:35:21 20° W 22:39:08 10° NW visible
30 Oct 5.9 08:59:39 10° NE 09:02:41 16° E 09:05:42 10° SE visible
30 Oct 2.9 10:37:07 10° N 10:42:10 67° WNW 10:47:12 10° SSW visible
